When you browse on this site, cookies collect data to enhance your experience and personalize the content and advertising you see.
Visit our Privacy Policy to learn more. By continuing to use the site, you agree to this use of cookies and data.
  • In Hungary
  • List of Countries
  • For 7 days
  • Water Temperature
  • Satellite Maps
  • Weather Map
  • News
  • Weather Widgets
  • user-avatar
    Login

    Hourly Weather Jinshiqiao

    Today, 18 February, Monday

    Time Temperature Precipitation Wind Pressure Humidity
    00:00 +2°C° 0.1 mm 1 mps 720 mmHg 88%
    01:00 +2°C° 0 mm 1 mps 719 mmHg 87%
    02:00 +2°C° 0.3 mm 1 mps 719 mmHg 88%
    03:00 +2°C° 0.3 mm 1 mps 719 mmHg 88%
    04:00 +2°C° 0.3 mm 1 mps 719 mmHg 88%
    05:00 +2°C° 0.2 mm 1 mps 719 mmHg 88%
    06:00 +2°C° 0.2 mm 1 mps 719 mmHg 89%
    07:00 +1°C° 0 mm 0 mps 719 mmHg 85%
    08:00 +2°C° 0 mm 0 mps 720 mmHg 82%
    09:00 +4°C° 0 mm 1 mps 720 mmHg 79%
    10:00 +5°C° 0 mm 1 mps 720 mmHg 76%
    11:00 +6°C° 0 mm 1 mps 720 mmHg 74%
    12:00 +8°C° 0 mm 1 mps 719 mmHg 72%
    13:00 +9°C° 0 mm 1 mps 718 mmHg 69%
    14:00 +9°C° 0 mm 1 mps 718 mmHg 72%
    15:00 +8°C° 0 mm 1 mps 718 mmHg 74%
    16:00 +8°C° 0 mm 1 mps 718 mmHg 76%
    17:00 +7°C° 0 mm 1 mps 718 mmHg 81%
    18:00 +7°C° 0 mm 1 mps 718 mmHg 85%
    19:00 +6°C° 0 mm 1 mps 718 mmHg 89%
    20:00 +6°C° 0 mm 1 mps 718 mmHg 90%
    21:00 +5°C° 0 mm 1 mps 719 mmHg 90%
    22:00 +5°C° 0 mm 1 mps 719 mmHg 91%
    23:00 +5°C° 0.1 mm 1 mps 719 mmHg 91%

    Tomorrow, 19 February, Tuesday

    Time Temperature Precipitation Wind Pressure Humidity
    00:00 +5°C° 0.1 mm 1 mps 719 mmHg 91%
    01:00 +5°C° 0.1 mm 1 mps 719 mmHg 91%
    02:00 +5°C° 0.1 mm 1 mps 719 mmHg 91%
    03:00 +5°C° 0.1 mm 1 mps 718 mmHg 91%
    04:00 +5°C° 0.1 mm 1 mps 718 mmHg 92%
    05:00 +5°C° 0 mm 1 mps 718 mmHg 92%
    06:00 +5°C° 0 mm 1 mps 719 mmHg 92%
    07:00 +5°C° 0 mm 1 mps 719 mmHg 92%
    08:00 +6°C° 0.2 mm 1 mps 719 mmHg 90%
    09:00 +7°C° 0.2 mm 1 mps 719 mmHg 89%
    10:00 +7°C° 0.2 mm 1 mps 720 mmHg 87%
    11:00 +8°C° 0.2 mm 1 mps 719 mmHg 87%
    12:00 +9°C° 0.2 mm 1 mps 718 mmHg 86%
    13:00 +10°C° 0.2 mm 1 mps 718 mmHg 85%
    14:00 +10°C° 0.1 mm 1 mps 718 mmHg 86%
    15:00 +10°C° 0.1 mm 1 mps 718 mmHg 86%
    16:00 +10°C° 0.1 mm 1 mps 718 mmHg 86%
    17:00 +10°C° 0.1 mm 1 mps 718 mmHg 88%
    18:00 +9°C° 0.1 mm 1 mps 718 mmHg 91%
    19:00 +8°C° 0.1 mm 1 mps 719 mmHg 94%
    20:00 +8°C° 0.4 mm 1 mps 719 mmHg 94%
    21:00 +9°C° 0.4 mm 1 mps 719 mmHg 94%
    22:00 +9°C° 0.4 mm 1 mps 720 mmHg 94%
    23:00 +9°C° 0.3 mm 1 mps 720 mmHg 94%

    Day after tomorrow, 20 February, Wednesday

    Time Temperature Precipitation Wind Pressure Humidity
    00:00 +9°C° 0.3 mm 1 mps 719 mmHg 94%
    01:00 +9°C° 0.3 mm 1 mps 719 mmHg 95%
    02:00 +9°C° 0.3 mm 1 mps 719 mmHg 95%
    03:00 +9°C° 0.3 mm 1 mps 719 mmHg 95%
    04:00 +9°C° 0.3 mm 1 mps 718 mmHg 96%
    05:00 +9°C° 0.1 mm 1 mps 718 mmHg 95%
    06:00 +9°C° 0.1 mm 1 mps 719 mmHg 95%
    07:00 +9°C° 0.1 mm 1 mps 719 mmHg 95%
    08:00 +10°C° 0.1 mm 1 mps 719 mmHg 93%
    09:00 +10°C° 0.1 mm 1 mps 720 mmHg 92%
    10:00 +11°C° 0.1 mm 1 mps 720 mmHg 90%
    11:00 +11°C° 0.1 mm 1 mps 720 mmHg 90%
    12:00 +11°C° 0.1 mm 1 mps 719 mmHg 90%
    13:00 +11°C° 0.1 mm 1 mps 718 mmHg 89%
    14:00 +11°C° 0.3 mm 1 mps 718 mmHg 90%
    15:00 +10°C° 0.3 mm 2 mps 718 mmHg 91%
    16:00 +10°C° 0.3 mm 2 mps 718 mmHg 92%
    17:00 +9°C° 0.9 mm 2 mps 719 mmHg 93%
    18:00 +9°C° 0.9 mm 2 mps 719 mmHg 94%
    19:00 +9°C° 0.9 mm 2 mps 720 mmHg 95%
    20:00 +8°C° 1.3 mm 2 mps 720 mmHg 95%
    21:00 +8°C° 1.3 mm 2 mps 721 mmHg 95%
    22:00 +8°C° 1.3 mm 2 mps 721 mmHg 95%
    23:00 +9°C° 2.5 mm 1 mps 721 mmHg 95%

    21 February, Thursday

    Time Temperature Precipitation Wind Pressure Humidity
    00:00 +9°C° 2.5 mm 1 mps 721 mmHg 95%
    01:00 +8°C° 2.5 mm 1 mps 720 mmHg 96%
    02:00 +8°C° 1.1 mm 1 mps 720 mmHg 95%
    03:00 +8°C° 1.1 mm 1 mps 720 mmHg 95%
    04:00 +8°C° 1.1 mm 1 mps 719 mmHg 95%
    05:00 +8°C° 1.1 mm 1 mps 720 mmHg 95%
    06:00 +8°C° 1.1 mm 1 mps 720 mmHg 95%
    07:00 +8°C° 1.1 mm 1 mps 720 mmHg 95%
    08:00 +8°C° 1.1 mm 1 mps 721 mmHg 94%
    09:00 +7°C° 1.1 mm 2 mps 721 mmHg 94%
    10:00 +7°C° 1.1 mm 2 mps 721 mmHg 93%
    11:00 +7°C° 0.2 mm 2 mps 721 mmHg 93%
    12:00 +7°C° 0.2 mm 2 mps 721 mmHg 92%
    13:00 +7°C° 0.2 mm 2 mps 720 mmHg 92%
    14:00 +7°C° 0.3 mm 2 mps 720 mmHg 92%
    15:00 +7°C° 0.3 mm 2 mps 720 mmHg 92%
    16:00 +6°C° 0.3 mm 2 mps 720 mmHg 92%
    17:00 +6°C° 0 mm 2 mps 721 mmHg 92%
    18:00 +7°C° 0 mm 1 mps 721 mmHg 93%
    19:00 +6°C° 0 mm 1 mps 722 mmHg 93%
    20:00 +6°C° 0 mm 1 mps 722 mmHg 93%
    21:00 +6°C° 0 mm 1 mps 722 mmHg 94%
    22:00 +5°C° 0 mm 1 mps 723 mmHg 94%
    23:00 +5°C° 0 mm 1 mps 722 mmHg 94%

    22 February, Friday

    Time Temperature Precipitation Wind Pressure Humidity
    00:00 +5°C° 0 mm 1 mps 722 mmHg 94%
    01:00 +5°C° 0 mm 1 mps 722 mmHg 94%
    02:00 +5°C° 0 mm 1 mps 722 mmHg 94%
    03:00 +4°C° 0 mm 1 mps 722 mmHg 94%
    04:00 +4°C° 0 mm 1 mps 721 mmHg 94%
    05:00 +4°C° 0 mm 1 mps 722 mmHg 93%
    06:00 +4°C° 0 mm 1 mps 722 mmHg 93%
    07:00 +4°C° 0 mm 1 mps 723 mmHg 92%
    08:00 +6°C° 0 mm 1 mps 723 mmHg 84%
    09:00 +8°C° 0 mm 1 mps 723 mmHg 76%
    10:00 +10°C° 0 mm 1 mps 724 mmHg 69%
    11:00 +11°C° 0 mm 1 mps 723 mmHg 66%
    12:00 +12°C° 0 mm 1 mps 722 mmHg 63%
    13:00 +14°C° 0 mm 1 mps 722 mmHg 61%
    14:00 +13°C° 0 mm 2 mps 721 mmHg 62%
    15:00 +13°C° 0 mm 2 mps 721 mmHg 63%
    16:00 +13°C° 0 mm 2 mps 720 mmHg 65%
    17:00 +12°C° 0 mm 2 mps 721 mmHg 70%
    18:00 +11°C° 0 mm 1 mps 721 mmHg 75%
    19:00 +10°C° 0 mm 1 mps 721 mmHg 80%
    20:00 +10°C° 0 mm 1 mps 721 mmHg 82%
    21:00 +10°C° 0 mm 1 mps 721 mmHg 83%
    22:00 +10°C° 0 mm 1 mps 722 mmHg 85%
    23:00 +9°C° 0.1 mm 1 mps 721 mmHg 86%

    23 February, Saturday

    Time Temperature Precipitation Wind Pressure Humidity
    00:00 +9°C° 0.1 mm 1 mps 721 mmHg 88%
    01:00 +9°C° 0.1 mm 1 mps 721 mmHg 89%
    02:00 +9°C° 0.4 mm 1 mps 721 mmHg 89%
    03:00 +9°C° 0.4 mm 1 mps 720 mmHg 90%
    04:00 +8°C° 0.4 mm 1 mps 720 mmHg 90%
    05:00 +8°C° 0.4 mm 1 mps 721 mmHg 91%
    06:00 +8°C° 0.4 mm 1 mps 721 mmHg 91%
    07:00 +8°C° 0.4 mm 1 mps 721 mmHg 91%
    08:00 +8°C° 0.2 mm 1 mps 721 mmHg 89%
    09:00 +9°C° 0.2 mm 1 mps 721 mmHg 87%
    10:00 +9°C° 0.2 mm 1 mps 721 mmHg 85%
    11:00 +9°C° 1.3 mm 1 mps 721 mmHg 87%
    12:00 +9°C° 1.3 mm 1 mps 720 mmHg 88%
    13:00 +9°C° 1.3 mm 1 mps 719 mmHg 90%
    14:00 +7°C° 2.9 mm 2 mps 719 mmHg 91%
    15:00 +7°C° 2.9 mm 2 mps 719 mmHg 93%
    16:00 +7°C° 2.9 mm 2 mps 719 mmHg 94%
    17:00 +7°C° 0.2 mm 2 mps 719 mmHg 94%
    18:00 +7°C° 0.2 mm 2 mps 720 mmHg 94%
    19:00 +6°C° 0.2 mm 2 mps 720 mmHg 94%
    20:00 +7°C° 0.6 mm 1 mps 720 mmHg 94%
    21:00 +7°C° 0.6 mm 1 mps 720 mmHg 95%
    22:00 +7°C° 0.6 mm 1 mps 720 mmHg 95%
    23:00 +7°C° 1.6 mm 1 mps 720 mmHg 95%
    Show more